Torna al catalogo

CZ-6A DEB

AttivoPO
NORAD 60843·DEBRIS·🇨🇳 China

Lanciato Aug 6, 2024 da Taiyuan Satellite Launch Center

Loading…

Prossimi Passaggi (prossime 24 ore)

TLE

AggiornatoSource: Space-Track

Epoca: Sep 14, 2026, 10:43 UTC

1 60843U 24140HW  26257.44691628  .00000778  00000-0  37219-3 0  9991
2 60843  89.0093 266.3706 0061356 279.3946  80.0310 14.17213020106632

Traccia CZ-6A DEB in tempo reale con AllMySat

Download on the App Store